When you browse on this site, cookies collect data to enhance your experience and personalize the content and advertising you see.
Visit our Privacy Policy to learn more. By continuing to use the site, you agree to this use of cookies and data.
  • In Schweiz
  • Länderverzeichnis
  • Für 7 Tage
  • Wassertemperatur
  • Wetterkarte
  • Widgets
  • user-avatar
    Anmelden

    Stündliche Wetter Canberra

    Heute, 4 Juni, Donnerstag

    Zeit Temperatur Niederschläge Wind Luftdruck Luftfeuchtigkeit
    00:00 +2°C° 0 mm 2 m/S 718 mmHg 88%
    01:00 +1°C° 0 mm 2 m/S 718 mmHg 91%
    02:00 +2°C° 0 mm 1 m/S 718 mmHg 91%
    03:00 +2°C° 0 mm 1 m/S 718 mmHg 92%
    04:00 +1°C° 0 mm 2 m/S 718 mmHg 93%
    05:00 +1°C° 0 mm 1 m/S 719 mmHg 92%
    06:00 +1°C° 0 mm 1 m/S 719 mmHg 92%
    07:00 +1°C° 0 mm 1 m/S 719 mmHg 91%
    08:00 +4°C° 0 mm 1 m/S 719 mmHg 79%
    09:00 +7°C° 0 mm 1 m/S 720 mmHg 66%
    10:00 +10°C° 0 mm 1 m/S 720 mmHg 54%
    11:00 +11°C° 0 mm 1 m/S 720 mmHg 50%
    12:00 +12°C° 0 mm 1 m/S 719 mmHg 45%
    13:00 +13°C° 0 mm 1 m/S 719 mmHg 40%
    14:00 +13°C° 0 mm 1 m/S 718 mmHg 46%
    15:00 +12°C° 0 mm 1 m/S 718 mmHg 51%
    16:00 +11°C° 0 mm 1 m/S 718 mmHg 57%
    17:00 +9°C° 0 mm 1 m/S 718 mmHg 66%
    18:00 +6°C° 0 mm 0 m/S 718 mmHg 74%
    19:00 +4°C° 0 mm 0 m/S 718 mmHg 83%
    20:00 +3°C° 0 mm 0 m/S 718 mmHg 84%
    21:00 +3°C° 0 mm 0 m/S 718 mmHg 85%
    22:00 +3°C° 0 mm 0 m/S 718 mmHg 86%
    23:00 +2°C° 0 mm 0 m/S 718 mmHg 87%

    Morgen, 5 Juni, Freitag

    Zeit Temperatur Niederschläge Wind Luftdruck Luftfeuchtigkeit
    00:00 +2°C° 0 mm 0 m/S 718 mmHg 88%
    01:00 +2°C° 0 mm 0 m/S 718 mmHg 89%
    02:00 +2°C° 0 mm 0 m/S 717 mmHg 89%
    03:00 +1°C° 0 mm 0 m/S 717 mmHg 90%
    04:00 +1°C° 0 mm 0 m/S 717 mmHg 91%
    05:00 +1°C° 0 mm 0 m/S 717 mmHg 91%
    06:00 +1°C° 0 mm 0 m/S 717 mmHg 91%
    07:00 0°C° 0 mm 0 m/S 717 mmHg 91%
    08:00 +3°C° 0 mm 0 m/S 717 mmHg 82%
    09:00 +6°C° 0 mm 1 m/S 717 mmHg 73%
    10:00 +9°C° 0 mm 1 m/S 717 mmHg 64%
    11:00 +11°C° 0 mm 1 m/S 717 mmHg 59%
    12:00 +12°C° 0 mm 2 m/S 716 mmHg 54%
    13:00 +14°C° 0 mm 2 m/S 716 mmHg 49%
    14:00 +13°C° 0 mm 2 m/S 715 mmHg 53%
    15:00 +12°C° 0 mm 2 m/S 715 mmHg 58%
    16:00 +12°C° 0 mm 2 m/S 715 mmHg 62%
    17:00 +9°C° 0 mm 1 m/S 715 mmHg 71%
    18:00 +7°C° 0 mm 1 m/S 715 mmHg 80%
    19:00 +4°C° 0 mm 0 m/S 716 mmHg 89%
    20:00 +3°C° 0 mm 0 m/S 716 mmHg 89%
    21:00 +3°C° 0 mm 0 m/S 716 mmHg 89%
    22:00 +3°C° 0 mm 0 m/S 716 mmHg 89%
    23:00 +2°C° 0 mm 0 m/S 716 mmHg 90%

    übermorgen, 6 Juni, Samstag

    Zeit Temperatur Niederschläge Wind Luftdruck Luftfeuchtigkeit
    00:00 +2°C° 0 mm 0 m/S 715 mmHg 90%
    01:00 +2°C° 0 mm 0 m/S 715 mmHg 90%
    02:00 +1°C° 0 mm 0 m/S 715 mmHg 90%
    03:00 +1°C° 0 mm 0 m/S 715 mmHg 90%
    04:00 +1°C° 0 mm 0 m/S 714 mmHg 91%
    05:00 +1°C° 0 mm 0 m/S 714 mmHg 91%
    06:00 +1°C° 0 mm 0 m/S 715 mmHg 91%
    07:00 0°C° 0 mm 0 m/S 715 mmHg 90%
    08:00 +3°C° 0 mm 0 m/S 715 mmHg 81%
    09:00 +6°C° 0 mm 0 m/S 715 mmHg 71%
    10:00 +9°C° 0 mm 0 m/S 715 mmHg 62%
    11:00 +11°C° 0 mm 1 m/S 714 mmHg 58%
    12:00 +12°C° 0 mm 1 m/S 714 mmHg 53%
    13:00 +13°C° 0 mm 2 m/S 713 mmHg 49%
    14:00 +12°C° 0 mm 2 m/S 713 mmHg 53%
    15:00 +12°C° 0 mm 2 m/S 712 mmHg 58%
    16:00 +10°C° 0 mm 2 m/S 712 mmHg 62%
    17:00 +8°C° 0 mm 2 m/S 712 mmHg 70%
    18:00 +7°C° 0 mm 1 m/S 712 mmHg 78%
    19:00 +5°C° 0 mm 1 m/S 712 mmHg 86%
    20:00 +5°C° 0 mm 1 m/S 712 mmHg 87%
    21:00 +4°C° 0 mm 1 m/S 712 mmHg 87%
    22:00 +3°C° 0 mm 0 m/S 712 mmHg 88%
    23:00 +3°C° 0 mm 0 m/S 712 mmHg 88%

    7 Juni, Sonntag

    Zeit Temperatur Niederschläge Wind Luftdruck Luftfeuchtigkeit
    00:00 +2°C° 0 mm 0 m/S 712 mmHg 88%
    01:00 +2°C° 0 mm 0 m/S 711 mmHg 88%
    02:00 +2°C° 0 mm 0 m/S 711 mmHg 87%
    03:00 +2°C° 0 mm 0 m/S 711 mmHg 87%
    04:00 +1°C° 0 mm 0 m/S 711 mmHg 86%
    05:00 +1°C° 0 mm 0 m/S 711 mmHg 85%
    06:00 +2°C° 0 mm 0 m/S 712 mmHg 84%
    07:00 +2°C° 0 mm 0 m/S 712 mmHg 83%
    08:00 +3°C° 0 mm 0 m/S 712 mmHg 77%
    09:00 +5°C° 0 mm 0 m/S 713 mmHg 71%
    10:00 +7°C° 0 mm 0 m/S 713 mmHg 65%
    11:00 +8°C° 0 mm 0 m/S 713 mmHg 64%
    12:00 +9°C° 0 mm 0 m/S 712 mmHg 64%
    13:00 +11°C° 0 mm 1 m/S 712 mmHg 64%
    14:00 +10°C° 0 mm 1 m/S 712 mmHg 66%
    15:00 +10°C° 0 mm 1 m/S 712 mmHg 68%
    16:00 +10°C° 0 mm 1 m/S 712 mmHg 70%
    17:00 +8°C° 0 mm 1 m/S 713 mmHg 75%
    18:00 +6°C° 0 mm 1 m/S 713 mmHg 80%
    19:00 +5°C° 0 mm 1 m/S 714 mmHg 85%
    20:00 +3°C° 0 mm 2 m/S 714 mmHg 85%
    21:00 +2°C° 0 mm 2 m/S 714 mmHg 85%
    22:00 +2°C° 0 mm 2 m/S 715 mmHg 86%
    23:00 +1°C° 0 mm 2 m/S 715 mmHg 86%

    8 Juni, Montag

    Zeit Temperatur Niederschläge Wind Luftdruck Luftfeuchtigkeit
    00:00 +1°C° 0 mm 2 m/S 715 mmHg 87%
    01:00 -1°C° 0 mm 2 m/S 715 mmHg 88%
    02:00 -1°C° 0 mm 2 m/S 715 mmHg 88%
    03:00 -1°C° 0 mm 2 m/S 715 mmHg 88%
    04:00 +1°C° 0 mm 1 m/S 715 mmHg 89%
    05:00 +1°C° 0 mm 1 m/S 716 mmHg 89%
    06:00 +1°C° 0 mm 1 m/S 716 mmHg 90%
    07:00 +2°C° 0 mm 1 m/S 717 mmHg 91%
    08:00 +4°C° 0 mm 1 m/S 717 mmHg 82%
    09:00 +7°C° 0 mm 1 m/S 718 mmHg 73%
    10:00 +10°C° 0 mm 1 m/S 718 mmHg 64%
    11:00 +11°C° 0 mm 1 m/S 718 mmHg 61%
    12:00 +13°C° 0 mm 1 m/S 717 mmHg 58%
    13:00 +14°C° 0 mm 1 m/S 717 mmHg 55%
    14:00 +13°C° 0 mm 1 m/S 717 mmHg 58%
    15:00 +13°C° 0 mm 1 m/S 717 mmHg 62%
    16:00 +12°C° 0 mm 1 m/S 717 mmHg 66%
    17:00 +10°C° 0 mm 1 m/S 718 mmHg 73%
    18:00 +9°C° 0 mm 1 m/S 718 mmHg 81%
    19:00 +7°C° 0 mm 1 m/S 719 mmHg 88%
    20:00 +6°C° 0 mm 1 m/S 719 mmHg 90%
    21:00 +5°C° 0 mm 1 m/S 719 mmHg 92%
    22:00 +3°C° 0 mm 0 m/S 719 mmHg 94%
    23:00 +3°C° 0 mm 0 m/S 719 mmHg 94%

    9 Juni, Dienstag

    Zeit Temperatur Niederschläge Wind Luftdruck Luftfeuchtigkeit
    00:00 +3°C° 0 mm 0 m/S 719 mmHg 94%
    01:00 +3°C° 0 mm 0 m/S 719 mmHg 95%
    02:00 +3°C° 0 mm 0 m/S 719 mmHg 95%
    03:00 +4°C° 0 mm 1 m/S 719 mmHg 95%
    04:00 +4°C° 0 mm 1 m/S 718 mmHg 95%
    05:00 +2°C° 0 mm 0 m/S 719 mmHg 96%
    06:00 +2°C° 0 mm 0 m/S 719 mmHg 96%
    07:00 +2°C° 0 mm 0 m/S 720 mmHg 96%
    08:00 +5°C° 0 mm 0 m/S 720 mmHg 90%
    09:00 +7°C° 0 mm 0 m/S 720 mmHg 83%
    10:00 +10°C° 0 mm 1 m/S 720 mmHg 77%
    11:00 +12°C° 0 mm 1 m/S 720 mmHg 69%
    12:00 +13°C° 0 mm 2 m/S 719 mmHg 60%
    13:00 +13°C° 0 mm 3 m/S 719 mmHg 52%
    14:00 +13°C° 0 mm 3 m/S 719 mmHg 55%
    15:00 +13°C° 0 mm 2 m/S 719 mmHg 58%
    16:00 +13°C° 0 mm 2 m/S 718 mmHg 61%
    17:00 +9°C° 0 mm 2 m/S 719 mmHg 69%
    18:00 +8°C° 0 mm 1 m/S 719 mmHg 77%
    19:00 +5°C° 0 mm 0 m/S 719 mmHg 85%
    20:00 +5°C° 0 mm 0 m/S 719 mmHg 85%
    21:00 +4°C° 0 mm 0 m/S 719 mmHg 86%
    22:00 +4°C° 0 mm 0 m/S 719 mmHg 86%
    23:00 +4°C° 0 mm 0 m/S 719 mmHg 87%
    Mehr zeigen